Find Antonio Jose de Sucre

NORAD ID: 42954 Int'l Des: 2017-060 Owner: ABAE Country: VE operational
LEOCIRCULARRETROGRADESSO

实时位置

正在加载3D地球...

关于 Antonio Jose de Sucre

正在加载描述...

即将过境

Passes for default location (London). Set your location on the main map for personalized predictions.

高度历史

Loading altitude history...

两行轨道根数

1 42954U 17060A 26106.84539468 -.00000124 00000-0 -94293-5 0 9991
2 42954 97.6583 147.3194 0015796 303.9240 56.0471 14.81094125459378
Epoch: Apr 16, 2026 • Age: 6 hours

当前状态

高度 635.1 km
速度 7.54 km/s
星下点 -9.75°S, 90.88°E
发射日期 Oct 9, 2017
运行时间 8.5 years
类型 other

技术详情

分类 Payload
质量 942.00 kg
干质量 900.00 kg
总质量 942.00 kg
长度 2.10 m
直径 1.80 m
跨度 7.90 m
形状 Box+2 pan
制造商 DFHZ
平台类型 CAST-2000
阶段状态 In Orbit
所有者/国家 ABAE/VE

Most Searched